Regional Weather Roundup
Issued by NWS

Home | Current Version | Previous Version | Graphics & Text | Print | Product List | Glossary On
Versions: 1 2 3 4 5 6 7 8 9 10 11 12 13 14 15 16 17 18 19 20 21 22 23 24 25 26 27 28 29 30 31 32 33 34 35 36 37 38 39 40 41 42 43 44 45 46 47 48 49 50
000
ASUS43 KBIS 231010
RWRND

NORTH DAKOTA REGIONAL WEATHER ROUNDUP
NATIONAL WEATHER SERVICE BISMARCK ND
500 AM CDT SAT JUL 23 2016

NOTE: "FAIR" INDICATES FEW OR NO CLOUDS BELOW 12,000 FEET WITH NO
SIGNIFICANT WEATHER AND/OR OBSTRUCTIONS TO VISIBILITY.


NDZ001>003-009>011-017-231100-
NORTHWEST NORTH DAKOTA

CITY           SKY/WX    TMP DP  RH WIND       PRES   REMARKS
WILLISTON      LGT RAIN  67  62  84 SE18G28   29.76F
MINOT          CLOUDY    69  66  90 SE10      29.82F
MINOT AFB      CLOUDY    66  65  94 S13       29.78F
$$

NDZ018>021-031>035-040>046-231100-
SOUTHWEST NORTH DAKOTA

CITY           SKY/WX    TMP DP  RH WIND       PRES   REMARKS
BISMARCK       CLOUDY    71  63  75 NE5       29.85R
DICKINSON      CLOUDY    62  59  90 E10       29.82F
GARRISON         N/A     68  63  84 E12       29.82F
HETTINGER ARPT CLOUDY    65  60  84 SE13      29.83F
$$

NDZ004>008-012>016-024-026-027-054-231100-
NORTHEAST NORTH DAKOTA

CITY           SKY/WX    TMP DP  RH WIND       PRES   REMARKS
GRAND FORKS    CLOUDY    73  61  65 E13       29.84F
GRND FRKS AFB  CLOUDY    70  63  78 SE8       29.86F
DEVILS LAKE    CLOUDY    72  62  71 CALM      29.91R
$$

NDZ022-023-025-028>030-036>039-047>053-231100-
SOUTHEAST NORTH DAKOTA

CITY           SKY/WX    TMP DP  RH WIND       PRES   REMARKS
FARGO          CLOUDY    77  61  57 SE13G23   29.85F
JAMESTOWN      CLOUDY    69  63  81 CALM      29.88F
$$





USA.gov is the U.S. government's official web portal to all federal, state and local government web resources and services.